Location: Devore Heights
(34.2372°N, 117.4156°W)
Time: 14:32:27
(UTC+00:00)

Explorer 11/Cluster Stage 4 - Visible Passes

Search period start: 13 September 2024 00:00
Search period end: 23 September 2024 00:00
Orbit: 464 x 1209 km, 28.8° (Epoch: 12 September)

Date Brightness Start Highest point End Pass type
(mag) Time Alt. Az. Time Alt. Az. Time Alt. Az.
13 Sep 9.2 12:46:09 10° S 12:49:33 15° SSE 12:53:13 10° ESE visible
14 Sep 9.1 12:27:00 10° S 12:30:21 15° SSE 12:33:59 10° ESE visible
15 Sep 9.0 12:07:53 10° S 12:11:08 15° SSE 12:14:42 10° ESE visible
16 Sep 8.8 11:48:48 10° S 11:51:56 15° SSE 11:55:23 10° ESE visible
17 Sep 8.7 11:31:07 13° SSE 11:32:43 15° SSE 11:36:02 10° ESE visible
18 Sep 8.7 11:13:22 15° SSE 11:13:31 15° SSE 11:16:41 10° ESE visible
18 Sep 7.8 12:55:32 10° SW 13:00:44 39° SSE 13:07:02 10° E visible
19 Sep 8.8 10:55:34 14° SE 10:55:34 14° SE 10:57:19 10° ESE visible
19 Sep 7.7 12:37:09 13° SW 12:41:29 39° SSE 12:47:32 10° E visible
20 Sep 9.1 10:37:43 11° ESE 10:37:43 11° ESE 10:37:57 10° ESE visible
20 Sep 7.5 12:19:19 21° SW 12:22:16 39° SSE 12:28:02 10° E visible
21 Sep 7.3 12:01:25 30° SSW 12:03:02 38° SSE 12:08:32 10° E visible
22 Sep 7.1 11:43:30 37° S 11:43:49 38° SSE 11:49:01 10° E visible
